CW6641 Weather Reports


Display with metric or nautical units.
time (UTC)temp
F
wind
direction
speed
MPH
gust
MPH
rain 1hr
in
rain 24hr
in
rain mn
in
humidity
%
barometer
mb
20260831001938 87 0.0 0.0 0.00 0.00 0.00 56 1016.9
20260831001433 87 0.0 0.0 0.00 0.00 0.00 55 1017.0
20260831000930 88 0.0 0.0 0.00 0.00 0.00 54 1017.0
20260831000426 88 0.0 0.0 0.00 0.00 0.00 54 1017.1
20260830235923 88 0.0 0.0 0.00 0.00 0.00 52 1016.9
20260830235419 89 0.0 0.0 0.00 0.00 0.00 51 1017.1
20260830234914 89 0.0 0.0 0.00 0.00 0.00 50 1017.1
20260830234409 89 0.0 0.0 0.00 0.00 0.00 50 1017.0
20260830233905 89 0.0 0.0 0.00 0.00 0.00 50 1017.0
20260830233400 89 0.0 0.0 0.00 0.00 0.00 49 1017.1
20260830232856 89 0.0 0.0 0.00 0.00 0.00 49 1017.1
20260830232351 89 0.0 0.0 0.00 0.00 0.00 48 1017.2
20260830231848 90 0.0 0.0 0.00 0.00 0.00 48 1017.0
20260830231342 90 0.0 0.0 0.00 0.00 0.00 47 1017.1
20260830230836 90 0.0 0.0 0.00 0.00 0.00 46 1016.9
20260830230331 91 0.0 0.0 0.00 0.00 0.00 46 1016.8
20260830225825 91 0.0 0.0 0.00 0.00 0.00 45 1016.8
20260830225320 91 0.0 0.0 0.00 0.00 0.00 44 1017.2
20260830224815 91 0.0 0.0 0.00 0.00 0.00 45 1017.0
20260830224309 91 0.0 0.0 0.00 0.00 0.00 44 1016.9
20260830223806 92 0.0 0.0 0.00 0.00 0.00 44 1017.1
20260830223301 92 0.0 0.0 0.00 0.00 0.00 43 1017.2
20260830222755 92 0.0 0.0 0.00 0.00 0.00 43 1017.2
20260830222251 92 0.0 0.0 0.00 0.00 0.00 44 1017.0
20260830221746 92 0.0 0.0 0.00 0.00 0.00 43 1017.1
20260830221243 92 0.0 0.0 0.00 0.00 0.00 43 1017.2
20260830220738 92 0.0 0.0 0.00 0.00 0.00 43 1017.1
20260830220237 92 0.0 0.0 0.00 0.00 0.00 43 1017.2
20260830215736 92 0.0 0.0 0.00 0.00 0.00 42 1017.3
20260830215230 92 0.0 0.0 0.00 0.00 0.00 43 1017.2
20260830214726 92 0.0 0.0 0.00 0.00 0.00 42 1017.1
20260830214225 92 0.0 0.0 0.00 0.00 0.00 43 1017.2
20260830213725 93 0.0 0.0 0.00 0.00 0.00 42 1017.3
20260830213220 93 0.0 0.0 0.00 0.00 0.00 42 1017.2
20260830212716 93 0.0 0.0 0.00 0.00 0.00 41 1017.4
20260830212211 93 0.0 0.0 0.00 0.00 0.00 42 1017.6
20260830211706 93 0.0 0.0 0.00 0.00 0.00 43 1017.3
20260830211205 93 0.0 0.0 0.00 0.00 0.00 43 1017.3
20260830210701 92 0.0 0.0 0.00 0.00 0.00 42 1017.4
20260830210200 93 0.0 0.0 0.00 0.00 0.00 43 1017.4
20260830205657 93 0.0 0.0 0.00 0.00 0.00 42 1017.6
20260830205153 93 0.0 0.0 0.00 0.00 0.00 41 1017.4
20260830204652 93 0.0 0.0 0.00 0.00 0.00 43 1017.3
20260830204151 93 0.0 0.0 0.00 0.00 0.00 41 1017.8
20260830203648 93 0.0 0.0 0.00 0.00 0.00 42 1017.5
20260830203143 94 0.0 0.0 0.00 0.00 0.00 41 1017.6
20260830202642 94 0.0 0.0 0.00 0.00 0.00 40 1017.7
20260830202137 94 0.0 0.0 0.00 0.00 0.00 40 1017.7
20260830201632 94 0.0 0.0 0.00 0.00 0.00 41 1017.8
20260830201127 94 0.0 0.0 0.00 0.00 0.00 37 1017.7
20260830200622 94 0.0 0.0 0.00 0.00 0.00 38 1018.1
20260830200121 94 0.0 0.0 0.00 0.00 0.00 38 1017.8
20260830195617 93 0.0 0.0 0.00 0.00 0.00 39 1018.0
20260830195114 93 0.0 0.0 0.00 0.00 0.00 41 1018.1
20260830194609 93 0.0 0.0 0.00 0.00 0.00 43 1018.2
20260830194108 93 0.0 0.0 0.00 0.00 0.00 42 1018.3
20260830193603 93 0.0 0.0 0.00 0.00 0.00 43 1018.4
20260830193058 92 0.0 0.0 0.00 0.00 0.00 44 1018.2
20260830192553 91 0.0 0.0 0.00 0.00 0.00 45 1018.5
20260830192053 91 0.0 0.0 0.00 0.00 0.00 44 1018.4
20260830191548 92 0.0 0.0 0.00 0.00 0.00 43 1018.5
20260830191044 93 0.0 0.0 0.00 0.00 0.00 45 1018.5
20260830190539 92 0.0 0.0 0.00 0.00 0.00 46 1018.4
20260830190034 92 0.0 0.0 0.00 0.00 0.00 45 1018.3
20260830185528 92 0.0 0.0 0.00 0.00 0.00 44 1018.5
20260830185024 92 0.0 0.0 0.00 0.00 0.00 42 1018.6
20260830184522 92 0.0 0.0 0.00 0.00 0.00 42 1018.6
20260830184017 92 0.0 0.0 0.00 0.00 0.00 43 1018.5
20260830183512 91 0.0 0.0 0.00 0.00 0.00 45 1018.7
20260830183008 91 0.0 0.0 0.00 0.00 0.00 45 1018.8
20260830182503 91 0.0 0.0 0.00 0.00 0.00 45 1018.7
20260830181959 91 0.0 0.0 0.00 0.00 0.00 43 1018.8
20260830181454 91 0.0 0.0 0.00 0.00 0.00 43 1018.8
20260830180948 91 0.0 0.0 0.00 0.00 0.00 45 1019.1
20260830180448 91 0.0 0.0 0.00 0.00 0.00 45 1019.1
20260830175946 91 0.0 0.0 0.00 0.00 0.00 44 1019.0
20260830175441 91 0.0 0.0 0.00 0.00 0.00 45 1019.2
20260830174936 91 0.0 0.0 0.00 0.00 0.00 46 1019.3
20260830174432 91 0.0 0.0 0.00 0.00 0.00 47 1019.0
20260830173927 91 0.0 0.0 0.00 0.00 0.00 47 1019.5
20260830173423 90 0.0 0.0 0.00 0.00 0.00 47 1019.4
20260830172918 90 0.0 0.0 0.00 0.00 0.00 48 1019.4
20260830172415 90 0.0 0.0 0.00 0.00 0.00 46 1019.4
20260830171910 90 0.0 0.0 0.00 0.00 0.00 47 1019.4
20260830171405 90 0.0 0.0 0.00 0.00 0.00 48 1019.4
20260830170900 90 0.0 0.0 0.00 0.00 0.00 48 1019.4
20260830170359 89 0.0 0.0 0.00 0.00 0.00 49 1019.4
20260830165858 90 0.0 0.0 0.00 0.00 0.00 49 1019.4
20260830165354 89 0.0 0.0 0.00 0.00 0.00 49 1019.3
20260830164850 89 0.0 0.0 0.00 0.00 0.00 48 1019.6
20260830164346 89 0.0 0.0 0.00 0.00 0.00 50 1019.7
20260830163842 89 0.0 0.0 0.00 0.00 0.00 52 1019.5
20260830163337 88 0.0 0.0 0.00 0.00 0.00 50 1019.6
20260830162832 88 0.0 0.0 0.00 0.00 0.00 54 1019.5
20260830162329 88 0.0 0.0 0.00 0.00 0.00 54 1019.7
20260830161829 87 0.0 0.0 0.00 0.00 0.00 57 1020.1
20260830161327 87 0.0 0.0 0.00 0.00 0.00 55 1019.8
20260830160823 87 0.0 0.0 0.00 0.00 0.00 56 1019.8
20260830160319 87 0.0 0.0 0.00 0.00 0.00 56 1020.1
20260830155814 86 0.0 0.0 0.00 0.00 0.00 58 1019.9
20260830155310 86 0.0 0.0 0.00 0.00 0.00 58 1020.0
20260830154805 86 0.0 0.0 0.00 0.00 0.00 60 1019.9
20260830154301 85 0.0 0.0 0.00 0.00 0.00 61 1019.8
20260830153757 85 0.0 0.0 0.00 0.00 0.00 61 1019.9
20260830153253 84 0.0 0.0 0.00 0.00 0.00 65 1019.8
20260830152750 84 0.0 0.0 0.00 0.00 0.00 64 1019.8
20260830152246 84 0.0 0.0 0.00 0.00 0.00 66 1019.6
20260830151745 83 0.0 0.0 0.00 0.00 0.00 64 1019.8
20260830151244 83 0.0 0.0 0.00 0.00 0.00 66 1019.7
20260830150740 83 0.0 0.0 0.00 0.00 0.00 67 1019.7
20260830150239 82 0.0 0.0 0.00 0.00 0.00 66 1019.5
20260830145734 82 0.0 0.0 0.00 0.00 0.00 67 1019.6
20260830145229 81 0.0 0.0 0.00 0.00 0.00 69 1019.6
20260830144724 81 0.0 0.0 0.00 0.00 0.00 69 1019.4
20260830144220 80 0.0 0.0 0.00 0.00 0.00 71 1019.6
20260830143716 79 0.0 0.0 0.00 0.00 0.00 71 1019.4
20260830143214 79 0.0 0.0 0.00 0.00 0.00 72 1019.5
20260830142710 78 0.0 0.0 0.00 0.00 0.00 72 1019.4
20260830142204 78 0.0 0.0 0.00 0.00 0.00 73 1019.4
20260830141659 77 0.0 0.0 0.00 0.00 0.00 75 1019.3
20260830141154 77 0.0 0.0 0.00 0.00 0.00 75 1019.2
20260830140649 76 0.0 0.0 0.00 0.00 0.00 76 1019.2
20260830140144 76 0.0 0.0 0.00 0.00 0.00 76 1019.3
20260830135639 75 0.0 0.0 0.00 0.00 0.00 75 1019.7
20260830135134 75 0.0 0.0 0.00 0.00 0.00 75 1019.5
20260830134630 75 0.0 0.0 0.00 0.00 0.00 75 1019.4
20260830134125 75 0.0 0.0 0.00 0.00 0.00 76 1019.5
20260830133621 74 0.0 0.0 0.00 0.00 0.00 76 1019.5
20260830133116 74 0.0 0.0 0.00 0.00 0.00 76 1019.3
20260830132612 74 0.0 0.0 0.00 0.00 0.00 77 1019.4
20260830132108 74 0.0 0.0 0.00 0.00 0.00 77 1019.3
20260830131606 73 0.0 0.0 0.00 0.00 0.00 77 1019.5
20260830131101 73 0.0 0.0 0.00 0.00 0.00 79 1019.2
20260830130556 73 0.0 0.0 0.00 0.00 0.00 78 1019.2
20260830130051 72 0.0 0.0 0.00 0.00 0.00 80 1019.4
20260830125546 71 0.0 0.0 0.00 0.00 0.00 82 1019.4
20260830125045 71 0.0 0.0 0.00 0.00 0.00 84 1019.4
20260830124544 70 0.0 0.0 0.00 0.00 0.00 86 1019.4
20260830124039 69 0.0 0.0 0.00 0.00 0.00 87 1019.4
20260830123537 69 0.0 0.0 0.00 0.00 0.00 86 1019.3
20260830123031 68 0.0 0.0 0.00 0.00 0.00 86 1019.3
20260830122528 68 0.0 0.0 0.00 0.00 0.00 86 1019.1
20260830122023 68 0.0 0.0 0.00 0.00 0.00 86 1019.2
20260830121519 68 0.0 0.0 0.00 0.00 0.00 86 1019.2
20260830121013 67 0.0 0.0 0.00 0.00 0.00 86 1019.3
20260830120509 67 0.0 0.0 0.00 0.00 0.00 86 1019.0
20260830120006 67 0.0 0.0 0.00 0.00 0.00 86 1019.2
20260830115501 67 0.0 0.0 0.00 0.00 0.00 86 1019.1
20260830114956 67 0.0 0.0 0.00 0.00 0.00 85 1019.0
20260830114453 67 0.0 0.0 0.00 0.00 0.00 85 1019.0
20260830113952 67 0.0 0.0 0.00 0.00 0.00 85 1019.2
20260830113447 67 0.0 0.0 0.00 0.00 0.00 85 1019.2
20260830112942 67 0.0 0.0 0.00 0.00 0.00 85 1019.2
20260830112438 67 0.0 0.0 0.00 0.00 0.00 85 1018.9
20260830111934 67 0.0 0.0 0.00 0.00 0.00 85 1018.8
20260830111430 67 0.0 0.0 0.00 0.00 0.00 85 1019.1
20260830110925 67 0.0 0.0 0.00 0.00 0.00 85 1018.9
20260830110420 67 0.0 0.0 0.00 0.00 0.00 84 1018.6
20260830105920 67 0.0 0.0 0.00 0.00 0.00 84 1018.7
20260830105416 67 0.0 0.0 0.00 0.00 0.00 84 1018.6
20260830104912 67 0.0 0.0 0.00 0.00 0.00 84 1018.6
20260830104408 67 0.0 0.0 0.00 0.00 0.00 84 1018.6
20260830103903 67 0.0 0.0 0.00 0.00 0.00 84 1018.7
20260830103359 67 0.0 0.0 0.00 0.00 0.00 84 1018.6
20260830102856 67 0.0 0.0 0.00 0.00 0.00 84 1018.5
20260830102352 67 0.0 0.0 0.00 0.00 0.00 84 1018.8
20260830101848 67 0.0 0.0 0.00 0.00 0.00 84 1018.8
20260830101348 67 0.0 0.0 0.00 0.00 0.00 84 1018.7
20260830100849 67 0.0 0.0 0.00 0.00 0.00 84 1018.7
20260830100348 67 0.0 0.0 0.00 0.00 0.00 84 1018.7
20260830095846 67 0.0 0.0 0.00 0.00 0.00 84 1018.6
20260830095343 67 0.0 0.0 0.00 0.00 0.00 84 1018.8
20260830094838 67 0.0 0.0 0.00 0.00 0.00 84 1018.7
20260830094335 67 0.0 0.0 0.00 0.00 0.00 84 1018.7
20260830093830 67 0.0 0.0 0.00 0.00 0.00 84 1018.9
20260830093325 67 0.0 0.0 0.00 0.00 0.00 84 1018.7
20260830092820 68 0.0 0.0 0.00 0.00 0.00 84 1018.5
20260830092317 68 0.0 0.0 0.00 0.00 0.00 84 1018.5
20260830091813 68 0.0 0.0 0.00 0.00 0.00 84 1018.8
20260830091312 68 0.0 0.0 0.00 0.00 0.00 84 1018.8
20260830090811 68 0.0 0.0 0.00 0.00 0.00 84 1018.8
20260830090307 68 0.0 0.0 0.00 0.00 0.00 83 1019.0
20260830085807 68 0.0 0.0 0.00 0.00 0.00 83 1018.7
20260830085306 68 0.0 0.0 0.00 0.00 0.00 83 1019.0
20260830084757 68 0.0 0.0 0.00 0.00 0.00 83 1019.0
20260830084253 68 0.0 0.0 0.00 0.00 0.00 83 1018.7
20260830083748 68 0.0 0.0 0.00 0.00 0.00 83 1018.8
20260830083244 68 0.0 0.0 0.00 0.00 0.00 83 1019.1
20260830082743 68 0.0 0.0 0.00 0.00 0.00 83 1018.8
20260830082239 68 0.0 0.0 0.00 0.00 0.00 83 1018.9
20260830081734 68 0.0 0.0 0.00 0.00 0.00 83 1018.9
20260830081234 68 0.0 0.0 0.00 0.00 0.00 83 1018.8
20260830080728 68 0.0 0.0 0.00 0.00 0.00 83 1018.8
20260830080224 68 0.0 0.0 0.00 0.00 0.00 82 1018.8
20260830075723 68 0.0 0.0 0.00 0.00 0.00 82 1018.9
20260830075219 69 0.0 0.0 0.00 0.00 0.00 82 1019.0
20260830074714 69 0.0 0.0 0.00 0.00 0.00 82 1019.0
20260830074210 69 0.0 0.0 0.00 0.00 0.00 82 1018.9
20260830073706 69 0.0 0.0 0.00 0.00 0.00 82 1018.9
20260830073202 69 0.0 0.0 0.00 0.00 0.00 82 1018.9
20260830072701 69 0.0 0.0 0.00 0.00 0.00 82 1019.0
20260830072156 69 0.0 0.0 0.00 0.00 0.00 82 1019.1
20260830071651 69 0.0 0.0 0.00 0.00 0.00 81 1019.4
20260830071150 69 0.0 0.0 0.00 0.00 0.00 81 1019.1
20260830070644 69 0.0 0.0 0.00 0.00 0.00 81 1019.0
20260830070140 69 0.0 0.0 0.00 0.00 0.00 81 1019.3
20260830065638 69 0.0 0.0 0.00 0.00 0.00 81 1019.3
20260830065137 70 0.0 0.0 0.00 0.00 0.00 81 1019.4
20260830064631 70 0.0 0.0 0.00 0.00 0.00 81 1019.3
20260830064127 70 0.0 0.0 0.00 0.00 0.00 81 1019.6
20260830063626 70 0.0 0.0 0.00 0.00 0.00 81 1019.8
20260830063125 70 0.0 0.0 0.00 0.00 0.00 81 1019.3
20260830062620 70 0.0 0.0 0.00 0.00 0.00 80 1019.5
20260830062115 70 0.0 0.0 0.00 0.00 0.00 80 1019.8
20260830061609 70 0.0 0.0 0.00 0.00 0.00 80 1019.5
20260830061106 70 0.0 0.0 0.00 0.00 0.00 80 1019.3
20260830060602 70 0.0 0.0 0.00 0.00 0.00 79 1019.6
20260830060059 70 0.0 0.0 0.00 0.00 0.00 79 1019.6
20260830055553 71 0.0 0.0 0.00 0.00 0.00 79 1019.6
20260830055049 71 0.0 0.0 0.00 0.00 0.00 79 1019.4
20260830054544 71 0.0 0.0 0.00 0.00 0.00 79 1019.5
20260830054040 71 0.0 0.0 0.00 0.00 0.00 79 1019.3
20260830053535 71 0.0 0.0 0.00 0.00 0.00 79 1019.2
20260830053034 71 0.0 0.0 0.00 0.00 0.00 79 1019.3
20260830052531 71 0.0 0.0 0.00 0.00 0.00 78 1019.3
20260830052030 71 0.0 0.0 0.00 0.00 0.00 78 1019.2
20260830051525 71 0.0 0.0 0.00 0.00 0.00 78 1019.0
20260830051020 71 0.0 0.0 0.00 0.00 0.00 77 1019.2
20260830050514 71 0.0 0.0 0.00 0.00 0.00 77 1019.0
20260830050009 71 0.0 0.0 0.00 0.00 0.00 77 1018.9
20260830045507 72 0.0 0.0 0.00 0.00 0.00 77 1019.1
20260830045003 72 0.0 0.0 0.00 0.00 0.00 77 1019.1
20260830044457 72 0.0 0.0 0.00 0.00 0.00 77 1019.1
20260830043952 72 0.0 0.0 0.00 0.00 0.00 77 1018.9
20260830043447 72 0.0 0.0 0.00 0.00 0.00 76 1018.9
20260830042945 72 0.0 0.0 0.00 0.00 0.00 76 1018.6
20260830042439 72 0.0 0.0 0.00 0.00 0.00 76 1018.7
20260830041938 73 0.0 0.0 0.00 0.00 0.00 76 1019.0
20260830041437 73 0.0 0.0 0.00 0.00 0.00 75 1019.0
20260830040932 73 0.0 0.0 0.00 0.00 0.00 75 1018.9
20260830040429 73 0.0 0.0 0.00 0.00 0.00 75 1018.8
20260830035928 73 0.0 0.0 0.00 0.00 0.00 75 1018.8
20260830035427 73 0.0 0.0 0.00 0.00 0.00 75 1019.0
20260830034922 73 0.0 0.0 0.00 0.00 0.00 73 1018.8
20260830034418 74 0.0 0.0 0.00 0.00 0.00 73 1018.9
20260830033912 74 0.0 0.0 0.00 0.00 0.00 72 1018.8
20260830033407 74 0.0 0.0 0.00 0.00 0.00 72 1018.8
20260830032903 74 0.0 0.0 0.00 0.00 0.00 71 1018.8
20260830032402 75 0.0 0.0 0.00 0.00 0.00 70 1018.8
20260830031857 75 0.0 0.0 0.00 0.00 0.00 70 1018.8
20260830031353 75 0.0 0.0 0.00 0.00 0.00 70 1018.9
20260830030848 75 0.0 0.0 0.00 0.00 0.00 70 1018.7
20260830030343 75 0.0 0.0 0.00 0.00 0.00 69 1018.7
20260830025842 75 0.0 0.0 0.00 0.00 0.00 69 1018.7
20260830025337 75 0.0 0.0 0.00 0.00 0.00 69 1018.7
20260830024836 76 0.0 0.0 0.00 0.00 0.00 69 1018.8
20260830024332 76 0.0 0.0 0.00 0.00 0.00 68 1018.7
20260830023829 76 0.0 0.0 0.00 0.00 0.00 68 1018.6
20260830023328 76 0.0 0.0 0.00 0.00 0.00 68 1019.0
20260830022827 76 0.0 0.0 0.00 0.00 0.00 68 1018.7
20260830022322 76 0.0 0.0 0.00 0.00 0.00 68 1018.6
20260830021817 76 0.0 0.0 0.00 0.00 0.00 67 1018.7
20260830021312 76 0.0 0.0 0.00 0.00 0.00 68 1018.6
20260830020812 77 0.0 0.0 0.00 0.00 0.00 68 1018.5
20260830020306 77 0.0 0.0 0.00 0.00 0.00 67 1018.3
20260830015807 77 0.0 0.0 0.00 0.00 0.00 67 1018.3
20260830015305 77 0.0 0.0 0.00 0.00 0.00 67 1018.5
20260830014757 77 0.0 0.0 0.00 0.00 0.00 67 1018.3
20260830014253 77 0.0 0.0 0.00 0.00 0.00 67 1018.4
20260830013748 77 0.0 0.0 0.00 0.00 0.00 66 1018.5
20260830013243 78 0.0 0.0 0.00 0.00 0.00 66 1018.5
20260830012738 78 0.0 0.0 0.00 0.00 0.00 66 1018.5
20260830012235 78 0.0 0.0 0.00 0.00 0.00 65 1018.3
20260830011730 78 0.0 0.0 0.00 0.00 0.00 65 1018.2
20260830011225 78 0.0 0.0 0.00 0.00 0.00 64 1018.1
20260830010720 79 0.0 0.0 0.00 0.00 0.00 63 1018.1
20260830010215 79 0.0 0.0 0.00 0.00 0.00 62 1018.2
20260830005714 79 0.0 0.0 0.00 0.00 0.00 61 1018.2
20260830005212 80 0.0 0.0 0.00 0.00 0.00 61 1018.1
20260830004707 80 0.0 0.0 0.00 0.00 0.00 61 1018.1
20260830004202 80 0.0 0.0 0.00 0.00 0.00 61 1017.9
20260830003656 81 0.0 0.0 0.00 0.00 0.00 61 1018.2
20260830003151 81 0.0 0.0 0.00 0.00 0.00 61 1017.9
20260830002648 81 0.0 0.0 0.00 0.00 0.00 59 1018.0